CW2927 Weather Reports


time (UTC)temp
C
wind
direction
speed
KPH
gust
KPH
rain 1hr
cm
rain 24hr
cm
rain mn
cm
humidity
%
barometer
mb
20260905192705 21 58 9.7 19.3 0.00 0.00 0.00 63 1012.6
20260905192204 21 61 8.0 20.9 0.00 0.00 0.00 63 1012.7
20260905190705 20 58 8.0 16.1 0.00 0.00 0.00 65 1012.6
20260905190205 20 31 11.3 20.9 0.00 0.00 0.00 62 1012.7
20260905182206 20 11 6.4 19.3 0.00 0.00 0.00 72 1012.7
20260905180705 20 21 9.7 19.3 0.00 0.00 0.00 71 1012.8
20260905180204 20 72 4.8 20.9 0.00 0.00 0.00 72 1012.8
20260905174705 20 28 4.8 16.1 0.00 0.00 0.00 70 1012.8
20260905174205 20 26 9.7 19.3 0.00 0.00 0.00 73 1012.8
20260905172705 20 14 6.4 11.3 0.00 0.00 0.00 74 1012.7
20260905172204 19 37 8.0 19.3 0.00 0.00 0.00 76 1012.7
20260905170705 18 60 4.8 14.5 0.00 0.00 0.00 80 1012.9
20260905170204 17 39 6.4 20.9 0.00 0.00 0.00 80 1012.9
20260905164705 18 74 8.0 14.5 0.00 0.00 0.00 80 1013.0
20260905164204 17 20 6.4 14.5 0.00 0.00 0.00 80 1013.0
20260905162205 17 5 4.8 16.1 0.00 0.00 0.00 81 1013.0
20260905160704 17 54 3.2 9.7 0.00 0.00 0.00 82 1013.0
20260905160204 17 10 4.8 14.5 0.00 0.00 0.00 82 1013.0
20260905154704 17 66 4.8 14.5 0.00 0.00 0.00 81 1013.0
20260905154204 17 33 9.7 19.3 0.00 0.00 0.00 82 1012.9
20260905152704 17 59 6.4 20.9 0.00 0.00 0.00 83 1012.9
20260905152204 17 53 4.8 14.5 0.00 0.00 0.00 84 1012.9
20260905150704 17 75 4.8 12.9 0.00 0.00 0.00 84 1013.1
20260905150205 17 59 8.0 19.3 0.00 0.00 0.00 84 1013.0
20260905144704 17 29 8.0 14.5 0.00 0.00 0.00 82 1012.9
20260905144204 17 35 8.0 16.1 0.00 0.00 0.00 82 1012.9
20260905142704 17 59 4.8 12.9 0.00 0.00 0.00 83 1012.7
20260905140704 17 83 8.0 19.3 0.00 0.00 0.00 84 1012.6
20260905134705 17 12 6.4 12.9 0.00 0.00 0.00 85 1012.4
20260905134204 16 12 6.4 19.3 0.00 0.00 0.00 85 1012.3
20260905130704 16 50 4.8 14.5 0.00 0.00 0.00 88 1012.2
20260905130204 16 68 6.4 14.5 0.00 0.00 0.00 88 1012.1
20260905124204 16 21 4.8 14.5 0.00 0.00 0.00 90 1011.9
20260905122204 15 14 3.2 9.7 0.00 0.00 0.00 91 1012.0
20260905120704 15 0 4.8 9.7 0.00 0.00 0.00 91 1012.0
20260905120204 15 11 4.8 9.7 0.00 0.00 0.00 91 1011.9
20260905114703 15 5 3.2 4.8 0.00 0.00 0.00 91 1011.8
20260905114204 15 19 4.8 11.3 0.00 0.00 0.00 91 1011.8
20260905112704 15 11 4.8 9.7 0.00 0.00 0.00 92 1011.7
20260905110704 15 14 4.8 9.7 0.00 0.00 0.00 92 1011.6
20260905104704 15 11 3.2 9.7 0.00 0.00 0.00 91 1011.5
20260905104204 15 30 3.2 4.8 0.00 0.00 0.00 91 1011.5
20260905100704 15 14 3.2 4.8 0.00 0.00 0.00 90 1011.2
20260905100204 15 14 3.2 4.8 0.00 0.00 0.00 90 1011.2
20260905094704 15 44 1.6 4.8 0.00 0.00 0.00 90 1011.1
20260905094204 15 44 3.2 11.3 0.00 0.00 0.00 90 1011.2
20260905092704 15 19 3.2 4.8 0.00 0.00 0.00 90 1011.0
20260905092204 15 36 3.2 4.8 0.00 0.00 0.00 90 1011.0
20260905090204 15 344 1.6 4.8 0.00 0.00 0.00 90 1010.9
20260905084704 15 11 3.2 8.0 0.00 0.00 0.00 90 1010.9
20260905084204 15 31 3.2 4.8 0.00 0.00 0.00 90 1010.9
20260905082704 15 39 4.8 4.8 0.00 0.00 0.00 90 1010.8
20260905082204 15 47 1.6 9.7 0.00 0.00 0.00 90 1010.7
20260905080704 15 54 4.8 11.3 0.00 0.00 0.00 89 1010.6
20260905080204 15 47 3.2 8.0 0.00 0.00 0.00 89 1010.5
20260905074705 15 57 1.6 8.0 0.00 0.00 0.00 89 1010.5
20260905074206 15 51 4.8 12.9 0.00 0.00 0.00 89 1010.5
20260905072706 15 31 3.2 9.7 0.00 0.00 0.00 89 1010.5
20260905072205 15 82 4.8 9.7 0.00 0.00 0.00 89 1010.5
20260905070705 15 26 3.2 11.3 0.00 0.00 0.00 89 1010.4
20260905070205 15 43 4.8 11.3 0.00 0.00 0.00 89 1010.4
20260905064705 15 61 3.2 8.0 0.00 0.00 0.00 89 1010.4
20260905064205 15 21 4.8 11.3 0.00 0.00 0.00 89 1010.3
20260905060705 15 53 1.6 4.8 0.00 0.00 0.00 90 1010.2
20260905060205 15 54 4.8 11.3 0.00 0.00 0.00 90 1010.2
20260905054704 15 53 3.2 8.0 0.00 0.00 0.00 91 1010.2
20260905054205 15 51 3.2 11.3 0.00 0.00 0.00 91 1010.1
20260905052705 15 8 3.2 4.8 0.00 0.00 0.00 92 1010.1
20260905052205 15 46 3.2 8.0 0.00 0.00 0.00 92 1010.1
20260905050704 15 14 4.8 11.3 0.00 0.00 0.00 92 1010.0
20260905050205 15 19 3.2 8.0 0.00 0.00 0.00 92 1010.0
20260905044705 15 36 3.2 4.8 0.00 0.00 0.00 92 1010.1
20260905044205 15 20 3.2 11.3 0.00 0.00 0.00 93 1010.1
20260905042705 16 7 3.2 4.8 0.00 0.00 0.00 92 1010.0
20260905042205 16 20 4.8 8.0 0.00 0.00 0.00 92 1010.0
20260905040705 16 49 3.2 4.8 0.00 0.00 0.00 92 1010.0
20260905040205 16 50 3.2 4.8 0.00 0.00 0.00 92 1010.1
20260905034705 16 51 1.6 4.8 0.00 0.00 0.00 91 1010.0
20260905034205 16 51 1.6 4.8 0.00 0.00 0.00 92 1010.0
20260905032205 16 53 3.2 12.9 0.00 0.00 0.00 91 1010.0
20260905030705 17 356 4.8 11.3 0.00 0.00 0.00 91 1010.0
20260905030205 17 3 8.0 14.5 0.00 0.00 0.00 91 1010.1
20260905024705 17 31 3.2 4.8 0.00 0.00 0.00 90 1010.0
20260905024205 17 34 3.2 4.8 0.00 0.00 0.00 90 1010.0
20260905022705 17 30 3.2 4.8 0.00 0.00 0.00 89 1009.8
20260905022205 17 4 3.2 8.0 0.00 0.00 0.00 88 1009.8
20260905020705 17 19 4.8 8.0 0.00 0.00 0.00 87 1009.6
20260905020205 18 41 3.2 8.0 0.00 0.00 0.00 87 1009.6
20260905014705 18 13 3.2 8.0 0.00 0.00 0.00 87 1009.5
20260905014205 18 17 3.2 9.7 0.00 0.00 0.00 86 1009.5
20260905012705 18 18 3.2 4.8 0.00 0.00 0.00 86 1009.4
20260905012205 18 24 3.2 11.3 0.00 0.00 0.00 85 1009.4
20260905010705 18 28 3.2 4.8 0.00 0.00 0.00 84 1009.4
20260905010205 19 20 3.2 4.8 0.00 0.00 0.00 83 1009.4
20260905004705 19 349 3.2 9.7 0.00 0.00 0.00 82 1009.5
20260905004207 20 8 4.8 8.0 0.00 0.00 0.00 82 1009.5
20260905002705 20 349 3.2 8.0 0.00 0.00 0.00 83 1009.5
20260905002204 20 284 3.2 4.8 0.00 0.00 0.00 83 1009.4
20260905000704 20 280 0.0 0.0 0.00 0.00 0.00 82 1009.2
20260905000204 20 280 0.0 4.8 0.00 0.00 0.00 82 1009.3
20260904232705 20 267 4.8 8.0 0.00 0.03 0.00 80 1009.1
20260904232204 20 269 3.2 8.0 0.00 0.03 0.00 80 1009.1
20260904230705 21 269 3.2 9.7 0.00 0.03 0.00 79 1009.0
20260904230205 21 267 3.2 9.7 0.00 0.03 0.00 79 1009.0
20260904224705 21 271 4.8 12.9 0.00 0.03 0.00 78 1008.9
20260904224204 21 277 6.4 12.9 0.00 0.03 0.00 77 1009.0
20260904222705 21 282 8.0 14.5 0.00 0.03 0.00 77 1008.9
20260904222205 21 257 8.0 12.9 0.00 0.05 0.00 77 1008.9
20260904220205 21 271 4.8 8.0 0.00 0.08 0.00 77 1008.8
20260904214705 21 273 4.8 8.0 0.00 0.08 0.00 76 1008.7
20260904214204 22 276 3.2 16.1 0.00 0.08 0.00 75 1008.7
20260904212704 22 243 4.8 9.7 0.00 0.08 0.00 72 1008.8
20260904212204 23 272 4.8 14.5 0.00 0.08 0.00 71 1008.7
20260904210705 23 278 6.4 14.5 0.00 0.08 0.00 70 1008.8
20260904210204 23 277 8.0 14.5 0.00 0.08 0.00 70 1008.8
20260904204705 23 277 6.4 11.3 0.00 0.08 0.00 70 1008.9
20260904204204 23 287 6.4 12.9 0.00 0.08 0.00 69 1008.9
20260904202705 22 266 4.8 11.3 0.00 0.08 0.00 74 1009.0
20260904202204 22 286 4.8 16.1 0.00 0.08 0.00 73 1009.0
20260904200205 22 264 3.2 11.3 0.00 0.08 0.00 73 1009.0
20260904194704 22 271 4.8 11.3 0.00 0.08 0.00 72 1009.0
20260904194204 22 280 8.0 12.9 0.00 0.08 0.00 71 1009.0